Tracking 25734 objects as of 28-May-2022
HD Live streaming from Space Station
objects crossing your sky now

SL-12 R/B(2)

Track SL-12 R/B(2) now!


NORAD ID: 36118
Int'l Code: 2009-070H
Perigee: 19,038.3 km
Apogee: 19,195.8 km
Inclination: 64.3 °
Period: 674.9 minutes
Semi major axis: 25488 km
RCS: 6.3096 m2 (large)
Launch date: December 14, 2009
Source: Commonwealth of Independent States (former USSR) (CIS)
Launch site: TYURATAM MISSILE AND SPACE COMPLEX (TTMTR)

Note: This is a ROCKET BODY
aabbcc
Your satellite tracking list
Your tracking list is empty




NASA's NSSDC Master Catalog

Two Line Element Set (TLE):
1 36118U 09070H   22146.34735381  .00000050  00000-0  00000-0 0  9999
2 36118  64.3411 121.3008 0030903 201.9898 333.3660  2.13352416 96957
Source of the keplerian elements: AFSPC